Weather in Vetka

Belarus     52˚33′32″N   31˚10′19″E
temp.,
°C
wind,
m/s
gust,
m/s
humid.,
%
clouds,
%
prec.,
mm/h
press.,
hPa
HPBL,
m
3 december, thu
thu300:00−3˚sse478099 0.0 1029564
03:00−3˚se478899 0.1 1029464
06:00−3˚se379273 0.0 1028302
09:00−2˚se478579 0.0 1028476
12:00−1˚sse468299 0.0 1028519
15:00−1˚sse4684100 0.0 1027517
18:00−1˚se4786100 0.0 1027417
21:00−1˚se499199 0.0 1026411
4 december, fri
fri400:00se4994100 0.0 1026365
03:00+1˚se51197100 0.2 1026384
06:00+1˚se61194100 0.0 1024397
09:00+1˚se61193100 0.0 1025447
12:00+2˚se61292100 0.1 1025532
15:00+2˚se61291100 0.1 1025535
18:00+2˚se71491100 0.0 1025515
21:00+2˚se7138997 0.0 1026592
5 december, sat
sat500:00+1˚sse7129196 0.0 1027632
03:00+1˚sse6129098 0.0 1027643
06:00+1˚sse61191100 0.0 1027620
09:00+1˚se61289100 0.0 1029590
12:00+2˚se61285100 0.0 1029746
15:00+1˚se7108699 0.0 1029640
18:00+1˚se61188100 0.0 1030626
21:00se71285100 0.0 1031596
6 december, sun
sun600:00−2˚se5118844 0.0 1032430
03:00−3˚se6128027 0.0 1033373
06:00−3˚se612690 0.0 1033377
09:00−4˚se512610 0.0 1034383
12:00−1˚se612470 0.0 1034454
15:00−1˚se612450 0.0 1033467
18:00−3˚ese612540 0.0 1033425
21:00−3˚ese612520 0.0 1034437
7 december, mon
mon700:00−4˚ese612510 0.0 1034451
03:00−4˚ese612500 0.0 1035442
06:00−5˚se612500 0.0 1034435
09:00−5˚se613640 0.0 1034452
12:00−3˚se712600 0.0 1033485
15:00−2˚se713570 0.0 1032557
18:00−3˚se6136482 0.0 1032530
21:00−4˚se6136258 0.0 1032519